RH
2 3 3 4 5 5 5 5 6 6 6 7 8 8 8 9 9 9 9 10 11 11 12 12 12 12 13 13 15 17 16 18 21 21 22 22 23 23 24 25 27 30 33 39 44 48 53 58 59 58 58 56 55 53 52 51 49 48 46 44 43 42 41 40 39 39 38 37 36 36 36 35 35 35 36 37 38 39 42 46 50 53 54 53 52 51 50 48
3 3 4 5 5 5 5 6 6 6 7 8 9 10 11 12 12 13 14 15 16 16 16 16 17 17 18 20 21 22 20 22 24 24 25 26 28 30 33 36 39 43 48 53 57 59 60 60 60 59 57 56 55 54 52 51 49 47 46 45 44 43 43 42 41 41 40 39 39 38 38 38 38 38 37 38 39 40 43 49 55 61 63 61 58 57 56 53
4 4 5 5 5 5 5 6 7 8 10 11 13 14 14 16 17 18 18 19 20 20 21 21 22 23 24 24 24 23 24 28 29 28 32 35 39 43 46 50 54 57 60 61 62 62 61 60 59 58 57 56 54 53 52 50 49 47 47 46 46 46 45 45 44 43 43 43 42 42 41 41 42 42 42 42 42 44 47 52 60 67 70 67 64 63 62 60
4 5 4 5 5 5 7 8 10 11 13 15 16 17 18 20 20 21 22 22 23 24 24 25 25 26 26 26 28 29 33 37 37 39 45 48 50 53 57 60 63 64 65 65 63 62 61 59 58 57 56 54 53 52 52 50 49 48 48 48 47 47 46 45 45 44 45 44 45 45 45 46 46 47 47 48 49 50 54 59 66 74 77 75 72 70 67 65
4 4 4 5 6 7 9 11 13 15 17 18 19 20 22 22 23 23 24 24 25 26 26 28 27 28 30 33 38 40 42 46 47 51 55 57 59 60 62 64 65 64 64 63 61 60 59 58 57 57 55 53 53 52 51 49 49 50 50 50 48 47 45 44 44 44 44 44 44 45 46 47 48 50 50 52 54 56 59 63 69 77 80 80 78 77 72 67
4 5 6 7 9 11 13 15 17 18 19 20 22 23 24 24 25 25 26 27 28 30 31 32 33 36 40 44 48 47 49 53 56 58 61 62 64 64 63 63 63 62 61 60 59 57 56 57 56 55 54 54 53 51 51 51 51 52 51 50 48 47 46 45 45 44 44 44 43 43 44 45 46 48 49 51 55 58 61 63 68 76 80 80 80 79 74 68
6 7 9 10 13 15 16 18 19 20 21 22 24 24 26 26 27 28 29 31 33 35 36 39 43 48 51 52 53 53 56 60 61 62 64 64 65 64 63 62 61 60 59 57 55 55 55 55 55 54 54 54 53 52 53 53 51 51 49 48 48 48 48 48 47 46 45 44 43 43 42 42 42 44 46 48 52 57 61 63 67 74 80 79 78 79 74 67
9 10 12 14 16 17 19 20 20 22 23 24 26 27 29 30 32 34 35 38 41 43 45 50 54 58 60 58 58 61 62 63 62 63 63 63 63 61 61 59 58 57 56 56 55 55 56 55 55 54 55 54 53 53 51 51 48 48 48 48 49 50 51 50 50 49 47 46 44 43 41 40 40 41 43 46 49 55 61 64 66 72 79 79 77 77 73 67
12 14 16 17 18 19 20 21 23 24 25 27 29 30 34 37 39 41 44 46 47 51 55 58 61 63 64 62 64 65 63 62 61 61 61 59 58 56 57 56 55 55 55 57 57 57 58 57 58 57 56 55 54 52 50 49 47 48 50 50 52 53 53 52 50 49 48 46 44 42 41 39 39 39 40 43 47 53 61 66 68 71 77 79 77 76 72 67
15 16 17 18 19 21 21 23 25 25 28 31 33 37 41 43 46 49 50 52 54 57 59 62 65 65 66 65 65 63 59 57 56 56 55 53 53 53 55 55 55 56 56 57 59 60 62 60 59 58 57 56 55 54 52 52 52 54 55 55 56 55 54 53 52 50 47 45 42 41 40 39 38 38 39 41 45 52 60 67 70 70 75 80 79 77 73 67
16 17 18 19 20 22 23 25 25 29 33 35 39 43 46 49 52 54 55 57 58 58 61 65 66 64 66 64 60 56 51 50 50 50 51 51 53 55 55 55 54 56 57 59 60 62 63 62 60 59 60 60 58 57 56 58 59 59 59 59 58 57 56 55 53 50 47 43 41 39 38 37 37 37 38 40 44 50 57 66 72 72 74 79 80 78 74 69
17 18 19 20 21 22 24 26 29 33 37 40 44 46 49 53 55 58 60 59 58 61 65 65 64 63 61 56 54 51 46 45 47 47 50 52 54 55 54 54 54 57 59 60 62 63 62 61 61 60 60 61 60 57 58 62 63 62 61 61 60 59 58 57 54 52 48 44 40 37 36 36 35 36 37 39 42 48 56 64 72 75 75 79 81 78 74 70
18 19 19 21 22 24 26 29 34 37 41 44 46 48 51 54 58 61 58 57 62 64 62 62 65 60 51 51 51 48 47 47 49 51 50 51 52 52 52 54 55 56 59 61 62 62 61 60 60 58 58 61 60 57 58 61 62 60 60 62 62 63 61 58 55 52 49 45 40 36 35 35 34 34 36 38 40 46 54 62 71 76 77 79 82 79 75 71
18 20 21 22 23 26 29 33 38 41 44 46 46 49 51 56 57 54 54 60 62 59 60 65 62 52 48 52 50 48 50 51 52 54 52 50 50 50 51 52 53 55 59 61 63 61 59 59 57 55 56 59 58 56 56 58 58 57 59 63 64 64 61 58 56 53 50 45 40 36 34 34 33 33 35 37 39 43 52 61 70 76 78 80 82 80 76 72
20 21 22 24 26 29 33 37 41 43 45 45 46 49 52 53 49 47 54 56 54 56 62 61 49 48 55 55 51 52 54 53 52 53 53 51 49 49 48 49 50 53 56 59 61 59 56 57 54 52 56 58 56 54 56 59 60 60 61 62 62 61 59 58 56 53 50 46 41 36 33 33 32 32 34 36 38 41 48 58 68 75 78 80 82 81 76 71
21 23 24 26 28 31 36 40 43 44 44 45 47 49 49 47 45 49 52 50 54 56 53 47 44 53 59 54 53 54 54 54 51 49 49 47 47 47 46 47 48 50 54 54 56 56 54 53 49 50 55 55 53 55 61 64 62 61 60 58 58 58 58 57 55 53 50 46 41 36 32 32 31 31 32 35 37 40 45 55 67 75 78 80 82 81 77 72
22 24 26 28 31 35 39 41 42 42 43 45 46 46 45 43 45 50 52 56 57 48 40 42 48 55 55 51 53 54 55 54 51 50 45 41 45 48 47 48 48 49 51 47 49 55 53 47 44 49 55 56 56 60 63 62 59 58 58 57 57 58 57 56 54 52 49 46 41 36 33 30 30 30 31 34 36 38 42 52 66 75 77 79 81 81 78 73
22 25 27 29 34 38 41 42 40 41 42 43 43 42 42 43 47 52 58 58 48 39 37 41 54 62 54 48 52 54 56 55 55 54 47 41 46 51 50 48 47 47 45 40 42 50 48 40 41 52 60 61 58 57 56 55 55 57 58 58 58 58 57 55 52 50 49 46 40 35 33 30 29 29 30 32 34 36 40 50 63 73 77 78 80 81 78 73
24 26 29 31 36 38 40 40 40 42 41 39 40 40 40 42 49 59 61 49 39 40 39 45 69 72 52 47 53 52 54 58 62 61 53 45 46 53 53 45 43 43 42 39 36 44 48 38 40 58 65 59 53 50 51 53 56 58 58 58 58 57 56 53 51 50 49 46 41 36 33 30 29 29 29 30 33 35 39 47 60 71 76 79 79 80 78 74
26 28 31 33 36 37 39 40 41 41 38 37 37 38 42 45 53 60 53 40 39 43 43 55 70 62 48 52 50 46 55 62 66 67 60 48 44 51 50 41 38 38 38 36 34 45 49 34 40 62 62 53 49 49 51 54 55 57 58 57 56 56 54 51 50 49 48 47 42 37 33 31 29 28 28 29 31 34 37 44 55 68 76 78 77 77 77 75
29 31 32 34 35 37 39 41 41 37 36 36 35 40 47 47 52 53 42 38 43 47 51 56 55 50 52 54 47 48 57 59 61 66 61 49 41 44 46 39 34 35 36 36 38 45 38 28 46 63 56 49 48 48 51 53 54 57 58 58 56 54 52 50 49 48 48 47 43 38 34 31 30 28 27 28 30 33 36 40 51 66 76 77 76 74 75 75
33 33 34 35 37 39 41 41 38 36 37 36 37 47 50 48 50 44 36 42 48 50 52 50 47 49 51 50 49 52 53 49 52 59 55 49 42 42 46 39 35 39 37 37 40 36 27 33 55 63 53 47 46 49 51 50 53 57 58 57 55 53 51 48 48 48 47 47 44 39 34 32 30 28 27 27 29 32 34 38 46 62 74 76 74 71 74 77
35 36 37 39 40 41 41 40 38 37 38 39 44 52 51 49 45 36 37 48 49 47 48 46 46 47 45 46 49 51 49 46 52 57 53 49 47 48 47 39 37 38 33 35 37 30 29 44 62 61 50 46 47 51 50 48 53 56 56 56 53 52 50 48 48 47 46 46 43 39 34 32 31 29 28 27 28 31 33 35 42 59 73 75 71 69 75 80
37 37 39 42 43 42 41 40 40 40 42 45 50 52 50 47 41 36 43 49 46 43 44 43 43 43 43 48 54 57 53 50 54 55 50 47 47 46 40 35 35 32 31 36 36 30 34 50 60 55 47 46 50 49 45 48 54 55 55 53 51 51 49 48 47 46 45 44 42 39 35 33 32 30 29 27 27 29 31 33 39 54 70 73 71 71 77 82
37 38 41 43 43 43 43 44 44 45 48 51 52 52 48 43 39 40 44 44 42 42 41 42 44 45 48 54 57 56 51 50 51 48 45 44 41 38 34 32 33 33 38 40 33 31 39 53 57 51 48 49 48 44 44 51 54 54 53 52 51 50 48 47 46 44 43 42 40 38 35 33 32 31 29 27 26 27 29 32 36 48 65 73 74 74 78 84
37 39 41 42 42 43 45 47 48 50 52 53 53 52 46 41 40 41 41 40 41 43 44 45 48 50 51 52 49 46 46 46 45 42 41 39 37 36 33 33 37 38 39 36 31 35 44 53 52 47 47 44 41 41 45 52 53 52 52 51 51 49 47 46 43 41 40 39 38 36 34 32 31 31 29 27 25 26 28 30 33 42 61 76 77 75 78 84
37 39 40 41 41 44 47 48 49 50 51 52 52 48 43 41 41 41 42 43 42 44 46 44 46 50 47 42 40 40 42 40 39 39 38 36 36 35 34 36 39 36 34 33 34 40 46 49 46 43 42 38 38 42 47 51 51 51 52 51 50 48 45 43 40 39 37 36 36 34 33 32 31 30 28 27 26 25 27 29 32 38 58 77 79 76 78 83
37 38 40 42 43 46 47 47 48 49 50 50 48 44 42 42 42 44 47 48 44 41 44 40 39 44 40 36 35 37 39 38 36 36 36 37 36 34 35 37 37 34 34 35 37 41 44 45 43 40 39 37 40 44 48 49 49 50 52 50 49 46 42 40 37 36 34 34 33 32 32 31 30 29 27 27 27 26 27 29 31 36 55 76 80 77 77 81
36 38 41 43 46 48 48 47 47 48 48 47 44 41 41 42 44 48 50 52 45 40 43 40 35 36 35 34 33 33 36 37 36 35 37 38 35 35 37 36 35 35 36 38 40 41 42 43 41 38 38 39 42 45 48 48 48 51 51 49 48 43 39 38 35 34 33 32 31 31 31 30 30 28 27 28 27 26 27 28 31 35 51 74 80 77 77 82
36 39 43 46 48 49 49 49 48 48 46 44 42 40 40 41 42 46 51 52 47 42 44 40 35 34 32 33 33 32 34 34 35 36 36 37 36 36 36 36 38 39 39 41 41 41 41 41 40 38 40 40 43 47 48 47 49 51 50 49 47 42 39 37 34 33 31 30 30 29 29 29 28 27 27 28 27 27 27 28 31 33 48 72 81 79 79 84
37 41 46 49 50 52 52 50 50 49 47 43 40 39 39 40 40 41 46 51 49 46 45 39 36 35 32 32 34 33 31 30 33 35 35 37 37 36 38 39 42 42 41 41 40 40 41 41 39 38 39 41 45 48 47 48 51 50 49 49 46 43 40 37 35 33 31 30 29 28 28 27 27 26 27 29 28 28 26 27 30 32 46 71 84 81 81 86
38 42 48 51 53 56 55 53 54 52 50 46 41 39 38 38 39 36 38 45 47 46 44 40 37 35 33 33 33 32 31 30 32 34 35 37 36 37 41 42 43 41 41 41 40 41 41 39 38 39 41 43 47 47 47 49 50 48 48 47 45 43 41 38 36 34 32 31 29 28 27 26 26 27 28 29 29 28 27 27 29 31 44 71 85 81 81 86
36 41 47 51 55 59 57 55 57 56 52 48 44 42 39 36 36 34 33 37 41 41 41 42 39 37 37 34 32 32 31 31 33 34 36 36 37 40 42 42 42 41 42 41 40 39 38 38 40 43 46 46 46 45 46 47 46 45 45 44 42 41 40 39 38 36 33 31 29 27 27 26 26 27 28 29 30 28 27 26 28 31 42 67 83 81 80 83
35 38 42 47 52 55 55 55 58 56 52 48 45 44 43 39 37 34 33 34 37 37 38 40 41 40 39 36 34 33 32 33 34 35 35 36 39 43 43 42 42 42 42 41 39 38 37 39 41 43 44 44 42 41 42 43 42 42 41 41 42 41 40 40 38 37 33 31 29 27 26 26 25 26 27 29 29 28 28 26 27 30 39 61 80 82 80 80
36 38 40 43 47 48 48 50 53 52 49 47 45 44 43 42 41 38 35 33 34 35 35 36 38 39 38 37 36 36 35 34 34 35 37 40 42 43 42 42 41 41 40 38 38 38 38 40 40 40 39 39 39 39 40 40 40 39 39 40 41 40 40 40 37 35 32 30 28 27 27 26 26 27 27 28 29 28 27 25 26 29 36 58 80 83 79 77
39 41 42 44 44 44 44 47 48 47 44 43 43 42 41 41 42 41 39 35 34 35 35 34 34 34 36 37 38 37 35 34 35 38 40 42 42 42 41 41 40 39 38 37 37 37 37 38 38 37 36 35 36 38 38 38 38 38 38 39 39 39 39 38 35 33 31 28 27 26 27 26 26 27 26 27 28 27 27 25 25 28 36 58 81 84 78 76
40 42 44 46 46 45 45 47 47 45 42 40 39 39 39 39 40 41 41 39 36 35 35 34 33 33 36 37 36 35 35 36 40 40 41 41 41 41 41 40 39 38 37 35 35 35 34 34 34 35 35 35 35 36 36 37 36 36 37 38 38 38 37 35 32 31 29 27 26 26 26 26 26 26 26 27 28 26 26 25 25 28 36 58 82 84 78 75
41 42 44 47 48 48 49 49 50 48 46 44 42 40 38 37 37 38 40 40 38 36 36 35 34 34 36 37 35 35 37 40 42 41 41 40 40 41 41 39 38 36 35 33 32 32 32 34 34 33 35 35 34 34 34 35 34 35 36 37 38 37 35 32 30 28 27 26 25 25 25 25 26 26 26 26 27 26 26 25 25 28 37 59 81 83 75 73
41 43 45 47 49 49 50 51 51 51 49 48 47 45 44 41 38 36 36 38 38 38 37 36 35 35 36 36 35 36 39 42 43 42 42 42 42 42 40 38 36 34 33 32 31 31 32 33 34 34 34 35 34 34 33 33 32 33 35 36 37 35 32 30 28 27 26 25 25 25 25 25 26 26 26 26 26 26 25 25 25 28 38 59 80 81 73 72
40 42 44 46 47 47 48 47 48 49 48 47 46 45 45 44 42 40 37 36 36 37 38 37 37 36 36 36 35 36 38 40 42 42 42 42 42 41 39 36 35 34 33 32 32 33 32 31 33 33 34 33 33 32 32 31 30 31 34 36 34 32 29 28 27 26 24 24 25 25 25 26 26 26 26 27 26 25 25 24 24 28 39 59 78 79 72 71
38 40 41 42 44 45 46 45 45 45 44 44 44 43 42 41 40 40 39 39 38 37 37 37 37 37 37 36 35 35 37 38 39 39 40 40 40 39 37 35 34 33 32 32 31 32 32 33 34 34 34 34 32 31 30 30 31 32 34 34 31 28 27 26 26 25 24 24 25 25 26 26 26 27 27 26 26 25 25 24 24 28 38 57 74 76 71 71
37 39 38 39 40 41 42 44 44 45 44 44 43 42 41 39 38 37 37 38 38 38 38 37 37 37 36 36 35 34 35 35 36 37 38 38 38 37 36 34 32 32 31 31 31 31 33 35 36 35 33 31 31 30 30 31 34 34 33 30 28 26 24 25 26 25 24 24 24 25 27 27 26 27 27 26 26 25 24 24 23 27 38 56 72 75 72 72
39 39 38 39 38 37 39 41 42 44 44 43 42 41 40 39 38 38 37 37 38 38 39 38 37 36 35 35 34 33 34 34 34 35 36 36 36 35 34 33 32 31 30 30 31 32 34 36 38 38 34 31 31 31 32 33 33 33 31 28 25 24 23 24 25 25 25 24 24 25 27 27 27 27 27 26 25 25 24 23 23 27 40 59 73 76 73 73
40 40 40 40 39 37 38 39 41 42 42 42 41 41 41 40 39 38 38 38 38 39 39 38 36 35 34 33 33 32 32 33 33 34 34 35 34 33 33 32 31 31 30 30 31 32 34 34 35 37 37 37 37 37 37 34 31 30 28 26 24 23 23 22 23 25 25 25 24 25 27 28 28 28 27 26 25 25 25 23 24 29 44 64 76 77 75 75
41 42 41 40 39 37 38 39 41 42 42 42 41 41 41 41 40 40 39 38 39 39 38 37 35 34 33 33 32 32 31 31 32 33 33 33 33 32 32 32 32 32 32 32 32 32 32 31 30 31 33 34 33 33 32 30 28 26 25 24 24 24 23 22 23 24 25 25 26 26 27 28 29 28 27 27 26 26 25 24 25 31 48 70 79 77 76 77
42 43 43 42 40 37 38 39 40 42 42 42 42 41 41 41 41 41 40 40 39 38 37 36 34 33 32 32 32 32 31 31 32 32 33 33 32 32 33 33 34 34 34 35 35 34 32 31 30 29 30 30 28 26 26 26 26 24 23 23 24 24 24 23 23 23 24 26 27 27 27 28 28 28 27 26 26 25 25 24 25 33 53 74 81 78 78 79
42 43 44 43 41 39 39 39 40 40 40 40 40 40 41 42 42 41 40 40 38 37 36 34 33 32 32 32 32 32 32 32 32 33 33 33 33 34 34 35 36 36 37 38 37 35 33 33 33 31 30 30 29 27 25 25 25 23 23 23 24 25 25 24 23 23 25 26 27 27 28 27 28 27 26 26 25 25 25 24 25 34 55 76 81 79 81 82
42 43 44 43 42 40 39 39 39 39 38 38 39 40 41 41 41 40 39 39 38 37 36 35 34 33 33 33 33 34 35 35 35 35 35 35 35 36 37 37 38 39 39 38 35 34 34 36 38 36 31 30 29 27 25 24 24 24 23 24 24 24 25 25 24 23 25 27 27 27 28 28 27 27 26 25 25 25 24 24 26 37 58 77 83 82 84 86
41 43 43 43 43 42 40 39 39 38 37 38 38 39 41 40 40 39 38 38 38 37 36 36 36 35 35 35 36 38 39 39 39 39 38 38 38 39 40 40 40 40 38 36 34 34 35 37 38 39 35 32 31 28 24 23 24 25 25 25 24 23 24 24 23 24 25 26 27 27 27 28 27 27 26 26 25 25 24 25 29 42 63 80 84 85 87 90
39 40 41 43 42 42 41 39 38 37 37 37 39 40 40 40 40 39 38 38 38 37 36 37 37 37 37 38 39 41 42 41 42 42 40 41 41 42 42 42 41 39 37 35 34 33 35 35 36 38 38 35 32 30 25 22 23 25 26 25 24 23 24 23 23 24 25 26 27 27 27 27 27 27 27 26 25 24 24 27 34 49 68 81 85 87 91 95
40 40 39 40 40 40 40 39 38 37 36 37 39 40 40 41 42 41 39 39 38 38 38 38 38 38 39 40 42 43 43 42 44 44 43 43 44 43 44 42 41 39 36 36 35 33 34 34 33 35 36 34 32 31 28 23 23 25 26 25 25 24 23 24 24 24 25 26 27 26 26 27 27 27 27 27 25 24 25 30 42 58 73 82 86 90 95 99
43 42 41 40 40 39 38 38 38 37 38 38 39 40 41 42 41 41 40 39 38 40 41 40 41 41 42 43 44 44 44 44 45 45 45 45 45 44 43 42 40 39 37 36 35 34 33 33 32 32 32 31 29 29 28 25 23 24 26 25 24 23 23 24 24 24 25 26 26 26 26 27 27 27 27 26 25 24 27 36 51 66 76 82 87 92 99 101
Wind_Speed
7 11 14 17 20 23 26 28 30 32 33 34 36 37 39 41 43 44 46 48 49 50 51 52 53 54 55 56 57 58 58 60 60 59 59 58 57 56 55 55 55 55 55 55 55 55 54 53 50 48 46 44 42 40 38 36 35 34 32 30 29 29 28 28 27 27 27 27 28 29 30 31 32 33 35 36 38 40 42 44 47 49 52 54 56 58 60 63
14 17 20 23 27 30 32 34 36 39 41 43 45 47 49 51 52 54 56 57 58 58 59 59 60 60 61 61 62 61 62 64 63 60 60 60 58 58 58 58 58 57 57 57 56 55 53 52 49 47 45 43 41 40 38 36 35 34 32 32 31 31 31 30 30 30 31 31 32 33 34 35 36 37 38 39 41 42 44 46 48 51 53 55 57 60 63 66
21 24 27 30 33 36 39 42 45 47 50 52 54 55 57 58 59 61 61 62 62 63 63 64 64 64 64 64 64 63 64 66 63 61 62 61 60 60 60 60 59 59 58 57 55 53 51 50 48 46 44 42 40 39 38 36 35 34 33 33 33 33 33 33 33 33 33 33 34 34 35 36 37 38 40 41 43 44 46 48 49 51 53 56 58 61 64 66
28 31 34 36 39 43 47 50 53 55 57 59 60 61 62 63 63 64 64 65 65 65 66 66 66 66 65 65 65 65 66 65 63 63 63 62 62 61 61 61 59 58 57 55 53 52 50 48 47 45 43 41 40 39 38 36 35 34 34 34 34 34 34 34 33 33 34 34 34 35 36 37 38 40 41 43 44 45 47 48 50 51 54 56 59 62 65 67
34 37 40 43 47 51 55 58 60 61 62 63 64 65 65 65 65 65 66 66 66 66 67 66 66 66 66 66 66 65 65 64 64 64 64 63 62 61 61 60 58 57 55 53 51 50 49 47 46 44 42 41 40 38 37 35 35 35 35 35 35 34 34 33 33 33 33 34 35 36 37 38 40 41 42 44 45 46 47 48 50 52 54 56 59 62 65 68
40 44 47 51 55 59 61 63 64 65 66 66 67 67 67 67 67 67 67 67 67 67 66 66 66 66 66 65 64 64 64 65 64 64 63 62 61 60 59 58 56 55 53 52 49 48 47 46 44 42 41 40 39 37 36 36 36 36 35 35 34 33 33 33 33 34 35 36 37 38 39 40 41 42 43 44 46 47 48 50 52 53 55 57 59 63 67 70
48 52 55 59 62 64 65 66 67 67 68 68 68 68 68 68 67 67 67 67 67 67 66 67 67 66 64 63 63 63 64 65 64 63 62 61 60 58 57 56 55 53 51 49 47 46 45 44 42 41 40 39 38 37 37 36 35 35 34 33 33 33 34 34 35 36 37 38 39 40 41 42 43 44 45 46 47 48 50 52 53 54 56 58 61 64 68 72
56 59 62 64 65 66 67 68 68 69 69 68 68 68 68 68 67 66 66 67 67 67 67 66 66 65 64 63 64 63 63 63 62 61 60 59 57 56 55 54 53 51 49 48 46 45 44 42 41 40 39 38 37 36 35 34 33 33 33 33 34 35 35 36 38 39 40 40 41 42 43 44 45 46 47 47 48 50 51 52 54 56 58 61 63 66 70 73
61 63 65 66 67 68 69 69 69 69 69 68 68 68 68 67 67 66 66 66 67 67 67 66 65 65 64 63 63 62 61 61 60 59 58 56 55 53 53 51 50 49 48 46 45 44 43 42 40 39 38 37 35 34 33 32 32 32 33 34 35 36 37 38 39 40 41 42 43 44 45 45 46 47 48 49 50 51 52 53 56 58 60 62 66 69 72 76
63 65 66 67 68 68 68 69 69 68 68 68 68 68 67 67 67 66 66 66 66 67 66 66 65 64 62 61 60 59 58 58 57 56 55 53 52 51 50 49 48 47 46 45 44 43 42 40 39 38 36 35 34 33 32 32 32 33 34 35 36 37 38 40 41 42 42 42 43 45 46 47 48 48 49 50 51 52 53 55 57 59 61 64 67 71 74 78
64 65 66 67 67 67 68 68 68 68 68 68 67 67 67 67 66 66 65 65 65 65 65 64 63 61 60 59 58 56 55 55 55 54 52 51 50 49 47 46 45 45 45 44 43 42 40 38 36 35 34 33 32 31 31 32 33 34 35 36 37 38 39 41 42 43 44 45 46 47 48 49 49 50 50 51 52 53 55 56 58 61 63 65 68 72 76 79
64 65 65 66 66 66 66 67 67 67 67 67 67 67 66 66 66 65 65 64 63 63 64 62 61 59 58 57 55 54 52 52 52 51 50 49 48 46 45 44 43 43 43 42 41 39 37 35 34 33 32 32 31 30 31 33 33 34 35 36 37 39 40 41 42 43 45 47 49 50 50 50 51 51 51 52 53 54 56 58 60 62 65 67 70 74 77 81
62 63 64 64 64 65 65 65 66 66 66 66 66 65 65 64 64 64 64 63 62 62 61 61 60 57 55 56 54 52 51 51 50 48 46 46 45 43 43 42 41 40 40 39 38 37 34 33 32 30 31 31 30 30 31 32 33 33 34 36 38 40 40 41 42 44 46 48 49 50 51 51 52 52 53 54 55 56 57 59 61 63 66 68 72 75 79 82
61 61 62 62 63 63 64 64 64 65 65 65 64 64 63 63 62 61 61 61 60 59 59 60 57 54 54 54 52 50 49 48 47 46 44 42 42 41 40 40 38 37 36 36 35 33 32 30 29 28 29 30 30 30 31 32 33 33 35 37 39 39 40 41 43 45 47 48 49 50 51 52 53 55 55 56 57 58 59 61 62 64 67 70 73 76 80 84
59 59 60 60 61 61 62 62 63 63 63 63 62 62 61 60 59 58 59 59 57 57 58 57 53 53 54 52 49 48 47 45 44 43 41 40 39 38 37 36 36 35 34 32 31 30 29 28 26 27 28 29 29 30 31 33 34 35 36 37 38 39 40 42 45 47 48 49 51 52 53 54 56 56 57 57 59 60 61 62 63 65 68 71 74 78 82 85
57 58 58 58 59 59 60 60 60 61 61 61 60 60 59 57 56 57 57 56 55 55 54 53 50 52 53 49 47 46 44 42 41 40 38 37 37 35 33 33 32 32 31 29 28 27 27 25 24 25 28 29 29 30 32 34 33 34 34 35 37 40 42 45 47 48 49 50 52 54 55 56 58 59 60 60 61 62 63 63 64 67 69 72 75 79 83 85
56 56 56 57 57 57 57 57 57 57 58 59 58 57 56 55 55 56 55 55 55 50 48 50 50 50 48 45 45 43 41 40 38 37 35 33 34 33 30 29 29 29 28 26 25 25 24 22 22 25 28 28 29 31 32 31 31 32 35 37 40 42 44 46 48 50 51 52 54 56 58 59 60 62 63 64 64 64 64 64 65 68 70 73 76 79 82 85
53 54 55 55 56 56 55 55 54 54 56 56 55 54 53 53 54 54 54 53 51 47 44 46 49 48 43 41 42 40 39 38 36 34 31 29 30 30 27 26 25 25 25 22 21 22 22 20 21 25 27 28 29 29 28 29 31 34 37 39 42 44 45 48 49 51 53 54 55 58 60 62 63 65 66 67 66 66 65 65 66 68 71 74 76 78 82 86
51 52 53 53 54 54 53 53 52 52 52 52 53 52 50 51 52 53 53 49 46 45 42 44 48 44 38 38 39 37 37 36 33 31 27 25 26 26 24 21 22 22 21 18 17 19 20 18 20 25 27 27 26 26 28 30 33 36 38 41 43 45 47 49 52 54 55 57 59 61 63 64 66 67 68 68 66 65 65 65 67 69 71 73 74 78 83 88
50 51 51 52 52 52 51 50 51 50 49 49 49 50 49 49 51 51 48 45 44 43 40 42 45 40 36 36 34 34 35 33 30 26 22 21 22 23 20 18 18 18 17 14 14 15 13 14 20 25 25 26 26 27 30 32 35 37 40 42 45 47 49 51 54 56 58 60 62 64 65 66 67 68 68 67 66 65 65 66 67 69 70 72 75 80 84 88
49 49 50 50 50 50 49 49 48 47 47 46 46 48 48 47 48 47 44 42 42 40 39 40 39 36 34 33 30 31 32 30 27 22 17 15 16 18 17 15 16 17 15 12 9 10 9 12 21 24 25 26 27 29 31 34 37 39 42 45 47 49 51 52 55 58 60 62 63 65 66 67 68 68 67 66 66 66 67 67 67 68 70 74 78 82 85 89
48 48 48 48 48 48 48 47 46 45 45 44 44 47 46 45 45 42 40 41 39 38 37 36 34 33 32 30 28 29 28 25 22 18 16 13 11 12 13 13 16 15 12 9 9 11 12 15 20 23 24 26 27 30 33 35 38 41 44 47 48 50 52 53 55 58 61 63 64 66 67 68 68 68 68 68 69 69 69 69 68 69 72 76 80 82 85 89
47 47 47 47 47 47 47 46 44 44 44 43 44 45 44 42 41 36 37 39 36 35 34 32 31 29 28 28 27 25 22 21 18 15 14 12 9 8 8 11 12 8 7 11 14 15 15 17 20 23 25 26 29 32 34 36 39 42 45 46 48 51 53 55 57 59 61 63 65 66 67 67 68 68 69 70 71 71 70 70 70 72 75 78 80 83 86 90
46 45 46 46 46 46 45 44 43 43 43 43 43 43 41 39 36 33 36 37 33 32 31 29 27 25 25 25 23 21 18 16 14 12 11 9 8 6 7 9 7 6 11 17 18 17 17 20 22 24 26 28 31 34 35 37 40 43 45 47 49 51 53 56 59 61 62 63 64 64 65 66 67 68 70 72 72 72 71 71 72 73 76 78 81 84 87 91
44 44 45 45 45 44 44 44 43 43 43 42 42 40 38 35 33 32 34 33 31 29 27 26 24 22 22 22 19 17 15 13 11 10 8 8 8 8 8 8 9 13 17 17 16 16 19 21 24 26 29 31 33 35 37 39 42 44 46 48 50 52 55 58 60 62 63 63 63 64 64 66 68 69 71 72 73 73 73 73 73 74 75 78 81 84 88 91
41 42 43 43 43 43 43 43 42 42 41 41 40 38 36 33 32 31 31 29 28 27 24 23 21 19 19 17 14 13 12 10 9 8 8 8 9 9 9 11 14 15 15 13 14 17 19 22 24 27 29 31 33 35 38 41 43 45 47 49 51 54 57 60 61 62 62 62 64 65 66 67 69 71 72 73 74 74 74 75 75 74 75 78 81 85 87 90
39 40 41 41 42 42 42 41 41 40 39 39 37 36 33 32 31 30 28 25 24 24 21 19 19 16 14 12 10 8 7 7 6 7 8 8 9 9 10 13 14 14 14 15 16 18 20 23 26 28 30 32 34 36 39 41 43 46 48 50 53 56 58 60 62 63 63 64 65 67 69 70 71 73 73 74 76 77 77 77 76 75 76 79 82 84 87 89
37 38 39 40 40 41 40 40 39 38 38 37 35 33 31 30 28 27 26 22 19 20 18 14 16 15 11 9 7 5 3 4 5 6 7 8 9 10 12 13 14 15 17 18 19 20 23 25 27 29 31 33 34 37 39 41 44 47 50 52 55 57 59 61 63 64 64 66 66 68 70 72 74 75 75 76 78 79 79 79 78 77 77 80 82 84 86 88
35 36 37 38 38 38 38 37 37 36 36 34 33 31 29 27 26 25 24 20 16 16 15 12 12 12 10 7 5 3 1 3 5 6 7 8 10 12 14 14 15 17 19 20 22 23 25 27 29 31 32 33 35 37 39 42 45 48 51 54 57 58 60 61 63 65 66 67 68 70 71 74 75 75 76 76 77 79 80 80 79 79 78 79 81 84 86 89
33 34 35 35 35 35 35 34 34 33 33 31 30 28 26 24 24 23 22 19 16 14 14 12 11 9 8 6 4 1 2 3 4 6 9 11 12 13 15 16 17 19 21 22 24 25 27 28 30 32 33 34 36 38 41 44 47 49 52 55 58 60 61 62 63 64 66 68 70 73 74 75 75 76 76 77 78 79 80 80 80 79 78 79 81 84 87 90
32 32 33 33 32 32 32 31 31 30 29 28 26 25 23 21 21 21 21 18 15 13 12 11 10 9 7 5 4 4 5 5 5 8 11 13 14 14 17 19 20 21 22 24 26 27 29 30 31 33 34 35 38 40 42 45 47 50 53 56 59 61 63 63 64 65 67 70 73 75 77 77 77 77 78 78 79 80 80 80 80 78 77 78 81 84 87 91
30 31 31 30 30 30 29 28 28 27 25 24 22 21 20 19 17 17 17 17 15 13 12 11 9 9 7 5 5 7 8 7 8 10 12 14 15 17 18 20 21 23 24 25 27 28 29 31 32 34 36 38 40 42 44 45 47 49 52 54 55 58 61 63 65 68 70 73 75 76 77 77 77 78 79 80 80 81 81 80 80 78 76 77 80 83 87 90
29 29 30 29 29 29 27 27 26 24 22 20 19 18 16 15 14 13 12 13 13 12 11 10 9 8 7 7 8 8 9 9 10 12 14 15 16 18 20 21 22 23 24 25 27 29 30 32 34 36 37 39 41 43 44 45 47 48 50 51 53 55 59 63 67 69 72 75 77 77 77 77 77 79 80 81 81 82 82 81 80 78 76 77 79 83 87 90
26 27 27 28 28 27 26 25 24 22 21 18 17 16 15 13 11 9 9 10 11 10 9 9 8 8 8 9 9 9 9 10 12 14 15 16 18 19 21 22 24 24 25 26 28 30 32 33 35 36 38 39 41 43 44 46 48 49 50 53 56 58 61 65 69 72 73 75 76 77 78 79 79 79 80 81 81 82 82 81 81 79 77 77 80 84 87 90
25 25 26 26 26 26 25 24 24 22 20 18 16 15 15 13 10 9 8 8 9 9 9 8 9 9 9 10 10 10 11 12 14 14 15 17 18 20 22 24 25 25 26 28 29 31 32 34 35 37 39 40 42 44 46 48 50 52 54 56 58 61 64 67 70 74 75 75 75 77 79 80 80 80 81 81 81 81 81 81 82 81 79 80 82 85 87 91
26 25 25 25 25 24 23 23 22 21 19 17 17 16 15 13 12 11 11 10 10 10 10 10 10 10 11 11 12 12 12 13 14 15 16 17 20 22 24 26 27 28 28 30 31 32 34 35 37 39 41 42 44 46 48 50 52 54 57 59 60 62 64 67 69 72 76 78 77 77 78 78 79 80 80 80 82 82 82 82 83 82 81 81 83 85 88 91
26 26 26 25 24 23 22 21 20 19 17 15 15 15 15 14 13 12 13 13 12 12 13 13 13 13 13 14 14 13 13 14 15 16 17 19 22 24 27 28 29 30 31 32 33 34 36 38 39 40 42 44 46 48 50 52 54 56 58 60 62 63 65 66 68 70 73 77 79 79 79 79 79 80 80 81 83 83 83 83 84 83 81 81 82 85 87 90
26 26 26 26 25 24 22 21 20 20 18 16 15 15 14 14 14 13 14 15 15 15 15 16 16 15 15 16 16 15 15 16 17 18 19 21 24 27 29 30 31 32 33 34 35 37 38 40 41 43 44 46 47 49 51 53 55 57 59 61 63 65 67 69 70 71 73 76 79 80 80 80 81 82 82 83 84 84 84 84 84 83 82 80 81 84 87 90
26 26 26 26 26 25 24 23 22 21 20 19 18 17 17 16 16 15 15 16 16 17 18 18 18 18 18 19 19 18 18 19 20 21 22 24 26 29 31 32 33 34 35 37 38 39 40 41 43 45 46 48 50 52 53 55 56 58 60 62 64 67 70 73 74 76 77 78 81 82 81 82 83 84 85 85 85 85 84 84 84 83 82 81 82 84 87 91
27 27 27 27 26 25 24 23 23 22 22 21 20 20 20 19 19 19 18 18 18 18 19 20 21 21 21 22 22 22 22 22 23 24 25 27 29 31 33 35 35 36 37 38 40 42 43 44 46 47 49 51 52 54 55 56 57 58 60 62 65 68 71 75 78 79 79 81 83 84 84 84 85 85 86 86 86 86 85 85 85 83 81 80 82 84 88 91
29 28 28 27 27 26 25 24 24 23 23 22 22 22 21 21 21 21 21 21 21 21 22 23 23 24 24 25 25 26 26 26 26 27 28 30 32 34 36 37 37 38 39 40 41 43 45 47 49 50 51 53 55 56 57 58 59 59 60 63 65 67 70 74 79 81 82 82 83 85 86 86 85 85 86 87 87 87 86 86 86 84 81 81 82 85 89 92
30 29 29 28 27 27 26 26 26 25 24 24 24 24 24 23 24 24 24 24 24 25 25 25 25 26 26 28 29 29 30 29 30 30 31 33 34 36 38 39 39 40 41 42 43 45 46 48 51 53 54 55 56 57 58 59 60 61 62 64 66 68 70 73 78 81 83 83 82 83 86 87 86 86 87 88 89 88 87 87 87 85 82 82 83 86 89 92
32 31 30 29 29 28 28 28 28 27 27 26 26 26 26 26 26 27 27 27 27 27 27 28 28 28 29 31 32 32 33 33 33 33 34 36 37 38 39 40 41 42 43 44 45 46 47 48 50 53 56 57 58 59 60 60 61 63 65 67 68 70 71 73 76 80 83 84 81 80 83 86 87 87 88 90 90 90 89 88 87 85 83 83 84 86 90 93
34 33 33 32 31 30 29 29 29 29 29 28 28 28 29 29 29 29 29 29 30 30 30 30 30 31 32 33 34 35 35 35 35 36 37 38 39 40 41 42 43 44 45 46 47 47 48 49 49 51 54 56 57 58 60 62 63 64 67 69 71 72 73 73 74 78 82 83 82 80 80 84 86 87 88 89 90 89 89 88 87 84 82 83 84 87 90 94
36 36 35 35 34 33 32 31 31 31 31 31 31 31 31 31 32 32 32 32 32 32 32 32 33 34 35 36 37 37 37 38 38 39 39 40 41 42 43 44 45 46 47 48 49 50 50 51 51 52 53 55 56 57 59 61 64 66 68 70 73 75 76 74 74 77 80 82 83 82 80 81 84 85 86 88 88 88 88 88 86 83 82 83 85 88 91 94
39 39 38 37 37 36 35 34 34 34 33 33 34 34 34 34 34 34 34 34 35 35 35 35 36 36 37 38 39 39 40 40 40 41 42 42 43 44 45 45 46 47 48 49 51 52 53 54 55 55 56 58 59 59 61 63 65 67 69 71 75 77 79 78 77 78 79 80 82 83 83 82 83 85 86 86 87 87 88 87 85 82 81 83 86 89 91 94
40 41 41 41 40 39 38 38 37 37 36 36 36 36 36 36 37 37 37 37 37 37 38 38 38 39 40 40 41 41 42 42 43 43 44 44 45 46 46 47 48 49 50 51 52 53 55 57 59 60 59 61 62 63 64 65 68 70 71 73 76 79 81 82 80 79 80 80 80 82 84 84 85 86 88 87 87 88 88 87 84 82 82 83 86 89 92 94
42 42 43 43 43 43 42 41 41 40 40 39 39 39 39 39 39 39 39 39 40 40 40 41 41 42 42 43 43 44 44 44 45 46 46 46 47 47 48 49 49 50 51 52 53 54 56 57 60 63 64 64 65 67 67 68 70 73 74 76 77 79 82 83 81 79 80 82 82 82 84 86 87 88 89 89 88 88 88 87 84 83 83 84 86 89 92 94
43 44 44 44 45 45 45 45 44 44 43 43 43 42 42 42 42 42 42 42 42 43 43 43 44 44 44 45 45 45 46 46 47 47 48 48 48 49 50 50 51 52 53 54 54 55 57 58 59 63 66 67 68 71 71 70 72 75 77 77 78 79 81 83 81 79 80 83 83 82 83 85 87 88 89 89 88 88 88 86 84 83 82 84 86 89 92 94
45 45 46 46 47 47 47 47 48 47 47 46 46 46 45 45 45 45 45 45 45 45 45 45 46 46 47 47 47 47 48 48 48 49 49 50 50 51 52 53 53 54 55 56 57 57 58 59 59 62 65 68 69 72 74 73 73 75 78 79 79 80 81 84 83 80 80 82 84 83 82 83 86 87 88 89 88 88 87 85 83 82 82 83 86 89 92 95
46 47 47 47 48 49 49 49 50 50 49 49 48 48 48 48 48 48 47 47 47 48 48 48 48 48 48 49 49 49 49 50 50 51 51 52 52 53 54 55 56 57 58 58 60 60 60 61 61 62 65 68 69 72 75 76 74 75 78 79 80 80 81 85 85 83 82 83 84 84 84 84 85 85 86 88 88 87 84 82 80 81 81 84 86 89 92 95
48 49 49 49 49 50 50 51 51 51 51 51 51 51 51 50 50 50 50 50 50 50 50 50 50 50 50 51 51 51 51 52 52 53 53 54 55 56 56 57 58 59 60 61 62 63 63 64 64 64 65 68 70 71 75 77 75 74 77 79 78 78 80 84 87 85 83 84 85 85 84 84 84 84 84 86 87 85 81 80 80 81 82 85 87 90 93 95
Wind_Direction
140 139 138 136 134 130 127 123 120 117 113 110 108 107 105 104 104 104 104 104 104 105 106 106 106 106 106 106 106 106 107 106 105 106 106 105 105 104 104 103 102 100 99 98 97 97 97 98 97 97 96 95 94 93 91 90 89 87 85 83 80 76 73 68 65 60 56 52 47 44 40 37 33 31 28 26 23 22 20 18 16 14 12 9 8 6 4 2
126 126 126 125 124 122 120 116 113 111 109 108 107 107 107 107 107 107 106 107 107 107 107 106 106 106 105 105 106 107 106 105 105 106 105 104 103 102 101 100 99 99 99 99 99 99 100 99 99 98 97 96 94 93 91 89 86 84 82 78 74 70 66 62 59 55 51 47 43 40 36 34 30 28 25 23 21 20 18 17 15 13 10 8 6 5 4 2
119 120 120 120 119 117 114 111 110 109 109 109 109 109 109 109 108 108 108 108 108 107 106 106 105 105 105 105 106 106 104 104 105 104 103 102 102 101 101 101 101 101 101 101 101 101 101 100 99 98 97 95 94 92 89 87 84 81 78 74 70 66 62 58 54 49 46 42 39 36 33 30 28 25 23 21 19 17 16 15 13 11 9 6 5 4 3 2
117 117 117 116 114 112 110 110 110 110 110 111 111 110 110 109 109 109 108 108 107 107 106 106 105 106 106 105 105 104 103 104 104 103 103 103 103 103 103 103 103 103 103 102 102 102 101 101 99 98 96 95 92 89 87 84 82 78 73 69 65 62 58 54 50 46 43 39 36 32 29 26 24 22 20 18 16 15 13 12 11 9 7 5 4 3 2 1
115 115 114 113 111 110 110 111 111 112 112 112 111 110 110 110 109 108 108 107 107 106 106 106 106 106 105 105 105 104 105 105 105 104 105 105 104 105 105 105 105 105 105 104 104 103 102 100 98 96 95 93 90 87 85 82 78 73 68 64 60 57 54 51 47 43 39 35 32 29 26 23 20 18 17 15 14 12 11 10 9 8 7 5 3 1 1 0
113 113 112 111 111 111 112 112 113 113 112 112 111 111 110 110 109 108 107 107 107 106 106 106 105 104 104 105 106 106 106 106 106 106 106 106 106 107 107 107 107 106 105 105 104 103 101 99 97 95 93 90 87 84 80 76 71 67 64 61 58 55 51 47 43 39 35 31 28 25 22 20 18 16 15 13 12 10 9 9 8 7 6 4 3 1 1 0
112 112 112 112 112 113 113 113 113 113 112 112 111 111 110 109 108 108 108 108 107 107 107 106 106 105 106 107 107 107 107 107 107 107 108 108 108 108 108 108 107 106 106 105 104 102 99 97 95 93 89 86 82 79 74 71 68 65 62 59 55 51 47 42 38 34 30 27 24 21 19 17 15 14 13 12 10 9 8 8 7 6 5 4 3 2 1 0
112 112 113 113 114 114 114 114 113 113 113 112 112 111 110 110 110 110 109 109 109 109 108 108 108 108 109 109 109 109 109 109 109 109 109 109 110 110 109 108 107 107 106 104 102 99 96 94 91 87 84 80 77 74 71 69 66 63 59 55 50 46 41 37 33 29 26 22 20 18 16 14 13 12 11 10 9 8 8 7 6 6 5 4 3 2 1 0
113 113 114 114 115 115 114 114 114 113 113 112 112 111 111 111 111 111 111 111 111 110 110 110 110 111 111 111 111 111 111 110 111 111 110 110 110 110 109 108 107 106 104 101 98 95 91 88 85 82 79 76 74 71 69 66 62 58 53 49 45 41 37 33 30 26 23 19 16 14 13 12 11 10 9 9 8 7 7 6 5 5 5 3 3 2 1 1
114 114 115 115 115 115 115 114 114 113 113 113 113 113 113 113 112 112 112 112 112 112 113 113 113 113 113 113 113 113 113 112 112 111 111 110 109 108 107 106 105 103 100 97 94 90 87 84 81 79 77 74 71 68 64 61 56 52 47 43 39 36 33 29 26 22 20 17 15 13 11 10 9 8 8 8 7 6 6 5 5 5 5 3 3 2 2 1
114 115 115 115 115 115 115 114 114 113 114 114 115 115 115 114 114 114 114 114 115 115 115 114 115 115 114 114 114 114 113 112 111 111 110 109 107 106 105 104 103 100 96 93 90 87 84 82 81 78 75 71 68 64 60 56 51 46 42 38 35 32 29 26 22 19 16 14 13 11 10 9 8 7 6 6 6 6 5 5 4 4 4 3 3 2 2 1
115 115 115 115 115 115 114 114 114 114 115 116 116 116 116 116 115 115 116 116 117 117 116 116 116 116 116 115 114 113 112 111 110 109 109 108 107 105 104 102 98 96 93 91 89 87 85 82 79 76 73 69 64 61 56 52 47 43 39 35 31 29 26 23 20 17 14 12 10 9 8 7 6 6 5 6 6 6 5 5 4 3 3 3 3 2 2 1
114 114 114 114 115 115 115 115 115 116 117 117 117 117 117 117 117 117 118 119 118 118 118 117 116 116 116 114 113 113 112 110 109 108 108 107 105 104 102 99 96 94 92 90 88 86 84 80 77 74 70 66 61 57 52 48 44 40 37 32 29 26 22 19 17 15 13 11 9 7 6 6 6 5 5 5 5 5 5 4 4 3 3 3 3 2 2 2
113 114 114 114 115 115 116 117 117 118 118 118 119 118 118 118 119 120 120 119 119 119 117 116 116 117 114 112 113 113 111 110 109 107 106 105 104 102 100 98 96 93 90 88 86 85 82 78 75 72 67 62 57 53 48 44 40 36 32 29 26 22 19 16 14 13 11 9 7 6 5 5 5 5 5 5 5 5 4 3 3 3 3 3 3 2 2 2
113 114 114 115 115 116 117 119 119 120 120 120 120 120 120 120 121 121 120 119 119 118 116 116 118 116 112 113 113 111 109 109 108 107 106 105 103 100 98 97 95 92 88 86 84 83 80 76 73 70 63 58 54 49 44 40 35 31 28 25 22 19 16 14 13 11 9 7 5 4 4 4 5 5 5 5 5 5 4 3 3 3 3 3 2 2 2 2
114 114 115 115 117 118 119 120 121 122 122 121 121 121 121 122 121 120 119 118 117 117 117 117 117 114 113 114 113 111 110 109 107 106 105 104 101 98 96 95 93 91 89 86 82 78 76 73 71 66 59 54 49 44 38 34 30 27 24 21 20 17 15 13 11 9 6 6 4 3 3 3 4 4 5 5 5 4 3 3 3 3 3 2 3 2 2 2
115 116 117 118 119 120 121 122 122 123 123 123 122 122 123 122 121 120 120 119 118 119 118 117 116 113 113 115 113 112 110 108 106 103 101 101 99 97 95 92 92 91 89 88 81 74 72 71 67 59 52 47 43 38 34 30 27 24 20 18 17 15 13 11 10 7 5 5 4 3 2 2 3 4 5 5 4 3 2 2 3 3 2 3 3 2 1 1
116 117 119 120 122 123 123 123 124 124 124 124 123 123 123 122 122 121 121 120 120 119 119 119 115 112 114 116 113 111 109 106 102 100 99 100 98 96 94 93 92 90 87 86 82 73 68 66 60 51 45 41 38 34 30 26 23 21 18 16 15 12 10 9 8 6 4 3 3 3 2 2 3 4 5 5 3 2 1 2 2 2 2 3 3 1 1 2
118 120 121 123 124 125 125 126 126 126 125 125 124 124 123 123 123 122 122 122 121 120 122 119 114 114 118 115 112 111 108 103 100 98 99 100 99 97 96 95 91 87 84 82 80 70 61 58 52 44 40 36 33 30 26 22 20 18 16 14 12 10 8 8 6 4 3 2 2 3 2 2 3 4 4 3 1 0 1 2 2 2 2 2 1 1 2 2
121 123 124 125 126 126 127 127 128 128 127 126 125 125 125 126 125 123 124 124 122 122 121 116 115 119 118 113 113 110 104 101 99 97 99 100 101 99 97 95 90 84 78 71 67 63 56 50 43 36 33 31 27 23 20 18 17 15 14 12 11 9 7 6 5 3 3 2 1 1 1 1 2 3 3 2 360 359 0 2 2 2 1 1 1 2 3 2
125 126 127 127 128 128 129 129 130 129 128 128 128 127 127 127 125 125 126 125 122 122 120 116 118 119 114 112 111 105 101 101 102 103 104 103 101 100 96 94 88 78 69 60 54 59 53 40 33 28 26 25 21 17 15 14 13 12 12 10 9 7 5 5 4 3 2 1 0 360 0 1 1 1 1 0 359 360 1 1 1 1 1 1 2 3 3 2
129 129 130 130 130 130 131 131 132 131 130 131 130 128 129 128 126 129 129 124 123 122 119 117 117 115 113 111 106 100 101 104 105 107 105 98 93 95 93 88 82 76 73 63 46 47 43 33 27 22 19 18 16 14 12 11 10 10 10 9 7 6 4 4 4 3 2 0 359 359 359 359 359 359 359 359 360 0 1 0 0 0 1 2 2 3 3 3
132 132 132 132 132 132 133 133 133 133 132 132 131 129 130 129 130 133 129 124 124 122 118 117 115 114 112 107 102 100 102 104 105 103 100 97 93 95 87 75 74 75 69 50 36 33 31 25 21 17 14 13 12 12 9 8 8 8 9 7 6 4 2 3 3 2 2 360 358 358 358 358 358 357 358 359 1 0 360 359 359 1 1 1 1 2 3 3
134 134 134 134 134 134 134 134 135 135 134 133 132 131 132 132 135 135 128 125 125 121 118 117 114 112 108 103 103 104 104 105 106 104 104 101 94 81 60 53 46 31 37 34 24 18 19 18 15 12 10 9 9 9 6 5 5 6 7 5 4 3 2 2 2 1 0 359 358 357 356 356 356 356 357 360 0 360 359 359 0 1 1 0 1 2 4 4
137 137 137 137 136 136 136 137 137 136 135 134 134 134 135 137 137 133 128 126 125 120 119 117 114 111 107 104 106 108 107 108 110 108 100 87 70 52 38 28 16 18 26 21 9 7 12 12 9 7 6 6 6 5 3 3 3 4 4 4 3 2 2 2 1 360 358 357 355 355 355 356 356 356 357 359 359 359 358 360 1 1 0 360 0 2 4 4
139 139 139 139 138 139 139 138 137 136 136 136 137 138 139 140 138 133 129 128 125 122 122 118 114 110 106 107 109 109 112 112 107 96 79 60 44 33 22 16 12 12 11 3 358 3 8 7 4 3 3 3 3 1 0 1 0 1 2 2 2 1 1 1 360 358 356 354 353 354 354 355 355 356 357 358 358 358 358 360 1 0 359 360 1 2 3 3
142 142 142 141 141 141 140 140 139 138 139 140 141 142 142 142 139 135 130 129 127 125 124 122 118 115 112 114 116 109 107 101 84 69 55 39 25 14 10 11 3 354 350 350 354 0 4 3 0 0 1 0 359 358 358 358 358 359 360 360 1 1 1 360 358 356 354 353 353 353 354 354 355 356 356 357 358 357 358 360 360 359 360 0 1 1 2 2
145 145 145 144 143 143 142 141 141 141 142 143 145 146 146 145 142 137 132 133 133 128 129 130 125 125 131 131 126 113 90 68 51 38 33 22 6 360 359 357 349 344 341 342 350 357 360 359 357 358 360 358 356 355 355 356 357 358 358 359 360 0 0 359 357 355 353 352 352 353 354 354 355 355 356 357 357 357 358 359 359 359 360 0 0 0 1 2
148 148 148 147 146 145 144 144 144 145 146 147 149 149 149 148 145 141 138 140 146 139 138 142 134 135 146 149 139 124 55 32 26 10 5 356 348 351 346 339 340 341 337 339 347 353 355 355 354 356 357 354 353 352 353 354 356 356 357 358 358 359 359 357 355 354 352 351 351 352 354 355 354 354 355 356 356 357 358 358 358 359 359 359 359 359 360 1
151 151 151 150 149 148 148 148 147 148 149 150 152 151 151 151 148 147 145 148 157 154 149 152 151 153 165 169 160 191 289 340 358 342 338 337 338 339 333 331 338 338 334 338 343 347 350 351 351 353 351 349 350 350 351 354 355 355 356 357 357 357 356 355 354 352 351 351 351 352 354 354 353 353 354 355 355 357 357 357 358 359 358 358 358 358 359 1
154 154 154 154 153 152 152 151 151 152 153 154 154 152 152 154 152 152 150 152 162 162 159 163 166 176 192 196 199 245 279 307 326 322 325 327 329 330 328 331 334 331 331 335 339 343 347 347 348 348 346 346 348 348 350 353 354 355 356 357 356 355 353 352 351 350 351 351 352 353 353 352 351 352 354 354 355 357 357 357 358 358 357 358 358 358 359 1
157 158 158 158 157 156 156 155 155 157 158 158 158 155 155 157 159 158 152 153 164 166 169 177 182 192 210 221 228 251 272 292 307 311 313 315 321 325 325 327 326 324 328 333 337 340 341 343 344 343 343 344 345 346 350 352 352 354 356 355 354 353 351 349 349 350 351 352 352 352 352 351 351 352 353 354 355 356 356 357 357 357 357 357 357 358 359 0
161 161 162 162 161 161 161 161 162 164 166 166 165 163 163 164 166 168 159 157 166 173 177 187 195 204 220 232 240 254 270 287 298 300 301 307 317 320 320 320 318 319 325 331 334 335 337 340 341 341 341 342 342 344 348 349 351 353 353 353 352 351 349 348 349 350 351 351 351 351 350 350 350 352 353 353 354 355 355 356 356 357 357 357 357 358 359 359
166 166 166 165 166 167 168 169 171 174 176 176 175 174 176 178 181 183 175 169 176 185 189 195 206 215 228 240 250 264 277 286 290 291 296 306 313 315 315 313 312 316 322 327 329 331 334 337 337 337 337 338 340 343 345 348 350 351 351 351 351 350 350 350 349 350 350 351 351 350 349 349 350 351 352 353 353 354 355 355 355 356 356 357 358 358 359 358
172 171 171 171 171 172 174 176 179 182 184 185 186 186 187 192 198 205 203 194 194 205 209 211 220 231 241 252 262 270 277 281 284 288 297 305 309 310 309 307 308 314 319 323 326 329 331 333 333 333 334 336 339 342 345 348 349 350 350 350 350 350 350 350 350 349 349 349 350 350 349 349 349 350 351 351 352 353 354 354 354 355 356 357 358 358 358 358
178 177 178 178 178 179 180 183 186 188 190 191 193 196 198 202 207 215 221 222 217 221 229 234 240 247 254 259 263 268 275 282 287 292 298 302 304 304 302 303 307 313 317 320 324 326 328 329 330 332 333 336 340 343 345 347 348 349 349 349 349 349 350 350 349 349 348 347 348 349 349 348 349 350 350 351 352 353 353 354 354 355 356 357 358 357 357 356
184 183 184 185 185 187 189 192 195 197 200 204 205 206 208 213 216 219 226 233 235 236 241 249 254 257 260 263 267 273 280 285 288 293 298 301 301 299 299 301 306 312 316 319 322 323 325 328 330 331 333 337 341 344 345 346 347 348 347 347 347 348 349 348 348 348 347 346 346 347 347 347 348 348 349 351 352 352 353 354 354 355 356 357 357 356 355 355
190 190 190 191 192 194 197 201 205 208 212 218 222 224 227 229 231 229 229 235 243 248 253 257 260 263 265 268 274 278 282 286 290 295 298 298 297 296 297 302 306 311 314 317 319 322 324 327 328 331 334 338 341 343 344 345 346 346 346 346 347 347 347 347 347 347 347 347 347 346 346 347 347 348 349 350 351 352 353 354 354 354 355 356 356 355 354 354
197 197 197 198 198 200 203 207 210 215 220 225 229 234 239 243 246 247 243 241 245 253 259 262 265 267 268 272 276 279 283 288 292 295 295 295 294 295 298 302 306 310 313 316 319 321 323 326 328 331 335 338 340 342 343 344 345 345 345 345 346 346 346 345 346 346 347 347 347 345 346 347 347 348 349 349 350 351 353 353 354 354 355 355 355 354 354 354
203 203 204 205 206 207 210 212 215 219 224 229 233 237 241 244 249 253 254 254 254 257 261 264 267 270 272 274 277 280 283 286 289 291 291 292 293 295 298 301 305 309 312 315 318 320 323 326 329 332 335 337 339 340 341 342 343 344 344 345 345 346 346 345 345 345 346 347 347 345 345 347 347 347 348 348 350 351 352 353 353 354 354 354 353 353 353 354
209 209 210 212 213 214 216 219 222 226 230 235 239 242 245 248 250 252 254 257 260 262 264 267 269 272 274 276 277 278 281 283 285 287 289 291 293 295 297 300 304 307 311 314 317 320 323 326 329 332 334 336 337 338 339 341 341 342 343 344 344 345 346 345 345 344 345 347 347 345 344 346 346 346 347 347 349 350 351 352 353 353 353 353 352 352 353 354
214 216 217 219 220 221 222 224 228 231 236 241 244 247 250 252 255 256 256 258 260 263 266 268 271 274 276 276 277 277 279 281 283 285 287 289 291 293 296 300 304 308 311 314 317 320 323 326 329 331 332 334 335 337 338 339 340 341 342 343 343 343 345 346 345 345 345 345 346 346 344 344 345 345 346 347 348 349 351 352 352 353 352 351 351 352 352 353
220 222 224 227 228 228 228 230 233 236 240 244 247 249 252 254 257 258 260 261 262 264 266 268 271 274 276 277 277 278 279 281 283 286 287 289 291 294 297 301 305 308 311 314 317 320 322 325 327 329 331 332 334 335 336 338 339 340 340 341 342 343 344 346 345 345 344 343 344 345 345 344 344 345 346 347 348 348 350 351 352 352 351 350 350 351 352 353
224 227 230 232 234 235 235 235 238 240 243 246 248 251 254 256 258 260 261 262 264 266 268 269 271 273 275 276 278 279 280 282 284 286 288 290 292 295 299 302 305 308 311 314 317 319 321 323 325 327 328 329 331 332 334 336 338 339 339 340 341 342 343 344 345 345 344 342 342 344 345 344 343 344 345 346 347 347 349 350 351 351 350 349 350 351 352 353
227 230 233 236 238 240 240 241 242 244 247 249 250 252 255 257 259 260 262 263 264 266 268 270 271 273 275 276 278 280 282 284 285 287 289 291 293 296 299 302 305 308 311 314 316 318 320 322 324 326 327 327 329 331 333 335 337 338 339 339 340 340 341 342 345 346 344 342 341 343 344 344 343 343 345 345 346 347 348 349 350 350 349 348 349 350 352 352
229 232 236 239 241 243 244 245 246 248 250 251 253 255 256 258 259 261 262 263 265 266 268 270 272 274 276 278 279 281 283 285 286 288 290 292 294 297 300 303 305 308 311 313 315 318 320 321 323 325 327 328 329 332 334 335 336 336 338 339 339 339 339 341 344 345 343 342 342 341 342 343 343 343 344 344 345 347 347 348 348 348 348 348 349 350 351 352
231 234 236 239 242 244 246 247 249 251 253 255 256 257 258 260 261 262 263 264 266 267 269 272 274 276 278 279 281 283 285 286 288 289 291 293 295 298 300 303 305 307 310 312 314 317 319 321 322 324 326 327 328 330 333 334 335 336 337 339 339 339 339 340 342 344 342 341 342 341 341 342 342 343 343 344 346 346 347 347 347 348 348 348 348 349 350 351
233 235 238 240 242 244 246 248 251 253 255 257 258 259 260 261 262 263 265 266 267 269 271 273 276 278 279 281 283 284 286 288 289 290 292 294 296 298 300 302 304 307 309 311 313 315 317 319 321 322 324 326 328 329 331 333 334 335 337 338 338 338 338 338 340 342 342 341 341 341 341 341 342 343 342 343 345 346 346 346 346 347 348 348 348 348 349 351
235 237 239 241 242 245 247 249 251 253 256 258 259 260 261 263 264 265 266 267 269 270 272 274 277 279 280 282 283 285 286 288 289 291 293 294 296 298 300 302 304 306 307 309 311 313 315 317 319 320 322 325 326 327 329 331 333 334 335 336 337 338 337 336 337 340 342 340 339 340 341 341 341 342 342 343 344 345 345 345 345 346 347 347 347 347 348 350
237 239 240 242 243 245 247 249 251 253 255 257 259 260 262 263 264 265 267 268 270 271 273 275 277 279 280 282 283 285 286 288 290 291 293 295 296 298 300 301 303 304 306 308 309 311 313 315 317 319 320 322 324 325 326 329 332 333 333 334 336 337 336 335 336 339 340 339 338 339 341 341 341 342 342 342 343 344 344 344 344 345 346 346 346 347 348 350
240 241 242 243 245 246 248 250 252 253 256 257 259 260 261 263 264 265 267 269 270 272 274 276 277 279 280 281 283 284 286 288 289 291 293 294 296 297 299 300 302 303 304 306 308 309 311 313 315 317 318 320 322 323 324 326 330 331 332 333 334 335 335 335 335 338 339 338 337 338 340 341 341 341 341 341 342 343 343 343 343 344 345 345 345 347 348 349
243 244 245 245 247 248 249 251 252 254 256 257 259 260 262 263 264 266 267 269 271 272 274 276 277 279 280 281 283 284 286 287 289 290 292 293 295 296 297 299 300 301 303 305 306 308 310 311 313 315 316 318 320 321 322 324 327 330 331 331 332 333 335 335 334 335 337 337 336 337 339 340 340 340 341 341 340 341 342 342 342 343 344 345 346 347 348 348